Theta_e
312 313 313 313 313 313 312 312 313 312 305 306 307 307 308 310 310 309 309 309 309 312 313 314 313 312 311 310 311 312 314 317 317 316 315 314 315 316 318 315 311 311 311 309 309 309 308
313 314 313 312 313 312 313 312 312 313 306 304 305 306 308 309 309 310 309 309 309 310 312 313 311 311 310 311 311 311 313 316 316 315 313 312 312 314 312 311 312 309 309 310 309 308 307
314 314 314 314 313 313 312 312 312 312 308 305 305 305 307 308 308 309 309 308 310 309 310 310 310 309 307 309 309 312 314 314 314 314 315 311 311 313 309 310 308 309 310 310 309 309 309
314 314 313 314 314 314 313 312 311 311 310 307 306 305 306 308 309 309 309 309 309 308 309 309 309 309 309 310 310 313 313 313 314 314 313 311 310 311 309 308 308 310 308 312 310 309 308
313 313 313 313 313 313 313 313 313 311 310 306 306 307 306 306 307 309 310 309 309 309 309 309 309 310 311 312 312 312 312 312 311 312 310 310 309 308 308 308 309 307 310 310 311 310 309
312 312 312 312 312 312 313 313 312 312 308 305 305 306 307 306 309 310 310 310 310 309 309 309 309 310 310 312 311 310 310 310 310 313 312 310 306 307 305 307 310 311 309 310 311 310 310
312 312 311 311 312 312 313 312 312 312 307 304 304 305 308 307 309 309 309 309 306 306 308 308 309 309 310 310 310 309 310 312 314 311 310 306 307 306 308 307 307 308 308 310 311 310 311
311 311 310 310 311 311 311 312 312 312 308 304 304 306 308 308 308 309 308 306 307 308 308 307 308 308 309 309 310 311 312 311 309 310 308 307 308 308 308 309 308 309 309 310 310 309 307
311 311 309 309 310 310 310 310 312 310 306 304 305 307 308 308 307 309 307 307 307 308 306 308 307 309 309 309 309 310 310 309 309 311 309 309 311 309 309 309 310 309 308 308 308 310 309
310 310 309 309 309 308 309 311 312 308 304 304 304 307 308 307 307 308 308 307 307 308 304 307 309 309 309 309 309 309 309 309 309 310 310 310 309 311 310 311 308 311 309 310 309 305 305
310 309 309 308 308 308 308 309 310 306 304 303 306 307 308 308 308 308 308 307 305 305 305 306 309 310 307 308 309 309 309 308 311 311 309 312 310 309 310 310 309 312 309 310 309 307 304
307 307 307 306 307 308 308 309 308 306 305 304 308 307 309 309 308 308 307 306 307 305 304 307 309 310 309 308 308 308 309 308 309 308 309 310 309 310 311 310 309 309 309 307 306 304 302
307 305 305 305 307 308 308 308 309 308 305 305 308 307 308 310 308 307 307 306 306 305 305 309 310 310 310 310 309 309 309 309 309 305 305 307 309 310 310 311 308 309 305 303 305 304 305
306 305 304 306 307 308 308 308 309 309 306 305 306 309 306 307 307 306 308 303 305 305 308 308 310 310 310 309 309 309 308 307 308 307 304 302 302 310 311 311 310 310 308 303 304 309 308
306 305 305 306 307 308 308 308 309 309 307 306 308 310 307 306 306 309 303 305 303 306 310 311 309 310 309 310 309 308 309 309 309 308 310 310 310 310 312 312 309 311 310 308 308 303 305
307 306 306 306 306 308 309 309 309 309 309 306 309 310 308 306 308 306 304 307 309 308 311 310 311 309 311 310 310 309 308 309 311 309 308 311 309 311 312 311 310 312 307 306 304 307 308
308 307 307 306 307 308 309 309 309 309 310 309 309 303 309 307 308 303 305 304 309 309 310 311 312 311 310 310 309 309 310 309 308 309 308 309 308 310 310 310 309 311 311 310 307 308 309
308 307 307 308 308 308 309 309 309 309 310 308 304 305 309 309 305 301 306 310 309 310 309 310 310 310 310 308 308 311 312 311 308 309 310 308 309 307 309 309 309 308 309 309 307 308 308
307 307 307 308 308 308 308 309 309 309 310 309 306 305 307 306 303 305 308 310 310 310 310 309 310 308 308 308 308 309 311 309 308 309 310 308 307 306 306 306 308 312 311 308 306 307 310
307 307 307 308 308 308 308 308 309 309 310 310 303 307 304 300 300 306 307 310 309 308 309 308 309 308 308 308 306 308 309 310 309 309 310 306 305 306 304 306 308 310 310 310 310 306 309
307 307 308 308 308 308 308 308 308 309 309 308 302 304 303 305 306 306 306 307 310 310 308 308 308 308 307 307 307 306 309 309 309 310 308 304 303 303 305 304 306 307 307 309 310 309 311
308 307 308 308 308 308 309 308 307 309 309 307 304 305 302 303 304 306 304 307 308 308 308 309 308 308 307 306 304 305 306 307 307 309 308 304 302 306 305 305 304 305 303 303 305 309 308
308 307 307 308 307 308 308 308 308 308 309 305 303 303 304 305 305 307 305 306 307 307 308 307 307 307 307 307 306 305 304 303 305 308 307 307 304 304 304 303 303 304 301 303 303 302 306
309 308 307 307 307 307 308 308 308 307 308 307 305 303 305 308 306 307 306 306 307 307 308 307 306 307 305 304 303 303 304 305 304 303 305 306 305 304 306 303 303 305 301 302 303 303 302
312 309 307 308 307 307 307 308 308 308 307 309 306 304 303 306 306 307 306 306 305 304 304 304 305 303 301 303 303 304 303 303 304 302 303 302 305 305 306 304 305 305 303 303 304 304 302
313 312 309 307 308 307 307 308 308 308 307 307 308 306 303 305 304 304 304 304 305 303 303 304 303 302 302 303 304 305 306 305 306 305 302 302 302 304 305 307 310 305 303 302 302 303 303
312 312 313 310 308 308 307 307 308 308 307 307 307 307 305 304 303 303 305 305 301 303 304 302 304 304 302 302 305 306 306 303 306 306 305 305 305 306 306 307 306 304 303 302 305 304 303
306 311 312 313 310 308 308 307 307 308 307 307 307 307 307 301 302 305 303 303 302 302 306 303 305 303 302 305 305 305 304 303 302 302 303 304 304 304 304 307 307 303 303 305 303 302 303
303 305 308 311 312 312 308 308 307 308 308 307 308 307 307 306 304 306 307 306 304 304 302 300 304 302 302 302 301 301 305 299 300 305 300 304 302 303 304 305 302 302 303 302 301 302 304
Wind_Speed
15 14 14 14 16 15 15 14 14 14 14 14 15 17 16 18 19 19 21 23 24 17 18 23 10 7 3 5 3 1 1 6 8 15 11 3 4 4 7 5 3 4 1 4 4 8 7
15 15 16 16 16 17 16 16 15 14 13 14 15 15 15 15 18 19 20 23 16 10 3 3 7 5 4 4 2 3 2 10 8 16 8 1 5 0 4 3 2 4 6 3 7 6 6
16 16 18 18 18 18 17 16 16 15 12 11 13 14 15 15 16 19 21 21 10 7 7 8 12 7 11 3 5 2 6 6 9 18 4 5 7 3 2 5 3 3 6 6 9 7 4
16 17 18 19 20 20 20 19 18 15 13 11 10 12 13 14 17 20 19 14 6 3 6 5 11 11 4 12 7 7 5 8 8 10 0 11 13 2 2 2 6 5 6 4 5 6 3
17 18 19 20 21 22 22 21 20 17 14 11 10 10 12 13 14 16 14 10 4 6 8 6 7 10 5 13 7 3 10 4 6 4 7 14 6 3 4 5 5 7 4 4 2 5 1
16 18 19 20 21 22 23 23 21 19 14 11 11 11 11 10 12 12 7 5 12 15 4 2 12 8 3 5 7 5 10 12 2 5 5 7 3 4 4 4 5 5 6 3 4 3 3
17 17 20 21 22 23 24 25 23 20 14 9 9 12 10 9 9 12 6 4 8 6 12 3 0 5 1 3 2 5 6 17 10 6 5 1 7 3 1 2 1 7 6 6 1 2 1
17 18 20 21 22 24 26 26 25 21 14 7 7 10 10 6 7 7 9 7 1 1 5 4 1 3 2 4 8 9 13 2 4 2 2 7 5 3 2 3 4 5 9 3 2 2 2
17 19 20 21 23 25 27 29 27 22 13 5 5 10 8 5 3 3 11 5 2 3 4 7 4 4 4 3 4 5 4 2 5 12 12 7 3 3 6 7 5 4 5 4 5 2 4
17 18 19 21 24 26 27 29 29 23 12 7 6 10 7 4 2 3 3 4 2 2 5 10 8 7 6 5 5 1 1 2 5 4 5 7 6 5 7 7 3 4 5 3 7 3 3
17 18 20 21 24 27 29 32 30 21 11 7 10 9 5 2 2 2 1 3 2 1 5 11 9 7 7 6 3 8 8 8 5 4 5 2 5 7 10 3 1 3 4 4 3 5 4
16 17 19 21 23 27 29 32 34 25 10 6 9 9 2 2 2 2 2 3 2 6 2 7 5 6 6 7 8 8 6 7 2 9 10 4 2 4 2 2 4 4 4 7 5 3 3
18 17 19 20 23 26 29 31 34 31 14 4 5 7 3 2 2 1 2 3 5 6 3 6 3 5 3 6 6 7 6 7 3 5 5 5 4 4 4 4 5 6 6 3 4 4 5
19 18 19 20 22 25 28 31 34 34 20 3 3 5 5 4 3 3 3 5 8 4 4 4 3 3 4 5 4 6 3 6 6 5 4 4 5 5 7 3 4 4 4 5 6 3 4
19 20 20 20 22 25 27 30 33 34 21 3 3 3 3 3 1 2 5 6 6 5 2 4 2 3 5 4 2 5 4 3 3 5 3 4 2 3 3 2 2 3 3 3 6 3 4
18 20 19 20 22 24 26 29 32 33 23 6 2 1 4 3 1 2 5 3 0 3 3 1 2 3 2 4 3 4 5 3 5 3 1 2 4 2 3 2 4 2 6 4 3 2 3
16 18 18 19 21 23 26 28 31 32 24 7 2 3 5 1 2 5 4 3 2 1 1 3 2 2 2 2 2 2 0 4 4 6 4 1 3 3 3 1 4 2 1 4 3 3 4
14 16 16 18 20 22 25 28 31 32 26 6 3 3 7 3 4 2 2 1 1 2 3 3 2 2 3 5 4 3 1 2 3 1 2 2 3 3 2 1 2 3 2 3 4 4 0
13 13 14 15 18 20 24 27 30 30 22 5 2 2 3 2 3 2 1 2 2 1 2 3 3 3 2 2 3 2 1 1 5 3 2 0 2 2 6 3 3 2 4 4 4 2 5
12 12 14 13 15 18 22 26 30 28 19 5 2 3 4 4 1 5 4 2 3 3 2 3 3 2 3 3 4 1 3 3 4 3 5 2 2 4 5 4 3 3 3 4 4 3 3
13 11 11 11 13 16 20 24 28 28 16 4 3 1 3 3 4 2 2 2 2 3 2 2 1 4 5 1 2 1 0 3 4 6 4 3 0 1 4 5 2 3 6 6 9 8 7
13 12 10 8 10 13 17 21 25 27 16 6 2 2 2 1 2 2 3 2 3 2 3 3 2 4 4 6 7 6 4 2 1 2 2 3 1 1 3 2 2 6 10 9 8 6 10
15 13 11 10 10 10 13 16 21 24 14 5 3 1 3 3 2 2 2 1 2 1 2 2 1 1 2 3 2 1 2 4 7 8 5 2 2 3 4 5 7 7 6 9 4 5 9
15 13 11 11 10 10 11 12 15 17 18 6 4 2 3 2 1 3 1 1 1 1 2 3 3 3 4 3 2 3 2 3 1 4 1 7 7 3 3 5 3 5 3 3 6 4 5
18 16 14 13 12 10 10 10 10 11 12 9 5 2 2 2 2 2 2 2 2 2 1 1 1 1 2 5 4 3 3 2 2 5 4 4 2 1 3 3 6 1 2 3 3 2 2
19 19 17 15 14 12 11 9 9 7 7 7 4 4 3 3 4 0 2 2 3 2 3 2 2 2 4 3 2 2 4 3 3 2 4 3 4 2 0 1 4 1 1 1 2 3 3
16 19 19 20 17 16 13 11 10 7 5 4 4 3 2 1 3 2 3 4 4 2 2 2 1 1 2 2 2 3 3 1 3 5 5 4 2 6 4 3 8 5 4 1 1 3 2
17 18 19 21 21 19 17 14 12 10 7 6 3 3 2 1 4 2 2 3 2 2 3 2 3 1 2 2 2 2 3 3 1 3 5 6 6 4 3 4 7 4 0 2 4 3 4
14 15 21 19 21 23 21 18 16 14 10 7 4 6 6 3 4 3 6 6 4 3 4 2 2 3 4 3 1 2 2 0 2 3 2 2 5 4 7 6 4 3 5 4 3 3 3
Wind_Direction
28 19 15 8 7 4 357 353 353 354 2 358 353 357 2 358 1 5 7 6 10 30 86 110 86 21 88 41 335 320 334 141 149 156 114 25 163 143 142 159 98 92 121 49 10 80 59
28 21 18 13 8 3 357 351 350 351 353 355 356 5 5 3 357 359 5 9 7 20 78 34 31 25 28 71 353 322 193 166 162 171 81 238 214 152 112 122 103 120 93 72 24 51 46
30 23 20 15 11 6 357 351 348 346 346 351 347 353 352 360 357 357 3 15 22 63 98 103 24 54 67 21 2 350 129 187 149 158 114 319 332 59 76 92 169 128 73 44 18 1 75
28 24 20 15 11 6 1 355 347 345 339 340 343 344 343 343 343 346 357 17 44 143 143 112 18 12 63 359 3 109 112 138 99 144 355 302 297 303 51 104 29 63 54 84 335 2 17
26 24 18 14 9 6 0 357 350 343 338 332 336 344 345 337 339 344 357 3 2 269 282 344 97 67 8 34 60 155 127 59 3 173 285 280 292 91 40 83 47 18 114 82 55 23 16
19 17 13 10 6 2 359 358 353 344 335 329 331 341 355 357 354 352 3 52 46 36 255 242 132 75 247 175 207 215 194 227 317 92 233 201 57 79 35 61 165 152 104 64 130 327 38
16 13 10 7 4 1 358 357 354 347 335 325 332 339 351 5 14 37 30 323 13 353 44 78 190 129 236 193 116 14 107 120 171 235 210 357 80 106 333 355 123 130 111 117 342 333 114
14 13 9 8 6 3 1 355 355 351 343 330 336 342 333 358 15 18 40 79 125 314 337 21 111 122 277 328 59 7 140 305 176 199 166 52 74 317 293 89 87 76 113 82 47 24 90
11 10 7 7 6 5 5 1 356 354 353 346 344 346 326 317 354 14 68 84 44 3 72 335 301 350 325 29 121 160 180 209 54 73 71 90 316 25 95 50 82 37 112 165 150 120 57
7 7 6 8 7 10 9 7 1 357 4 4 344 337 333 295 309 30 66 33 22 77 69 326 346 353 350 327 37 77 176 142 50 79 60 69 341 65 76 81 30 71 329 107 113 87 165
1 2 3 8 9 11 11 10 5 4 5 8 359 354 6 67 102 51 24 359 353 114 55 308 311 310 342 67 298 347 11 34 64 21 96 338 24 31 62 340 340 115 64 72 88 87 82
356 358 2 6 9 10 11 11 11 5 358 349 10 12 28 42 36 33 353 348 5 46 302 332 315 348 18 12 359 336 23 46 137 56 34 87 52 58 82 43 65 126 66 45 51 67 37
358 358 0 3 7 9 10 10 9 7 353 335 350 18 59 72 127 27 24 38 39 86 280 312 330 355 22 3 12 30 22 18 51 81 3 3 5 345 37 71 29 70 52 11 12 9 214
358 357 357 360 5 6 7 7 8 6 358 311 309 1 53 84 105 108 62 52 69 241 267 286 310 335 46 359 9 18 46 22 14 47 97 113 346 5 341 49 145 71 129 148 185 181 252
356 355 357 359 1 3 5 7 5 6 2 340 278 338 13 20 91 119 76 52 179 208 263 338 331 57 357 4 41 56 52 16 17 14 93 121 20 337 34 12 46 190 63 160 105 65 43
351 353 355 356 358 0 4 5 5 3 6 1 312 336 10 344 3 91 75 127 59 234 331 358 55 33 43 337 51 54 8 325 340 26 118 161 98 8 342 18 21 78 148 65 4 136 270
343 348 350 353 356 359 2 4 4 359 6 357 352 39 359 10 29 49 98 182 179 259 345 18 347 321 29 12 27 78 321 353 2 330 24 93 104 286 22 208 186 72 75 57 113 138 171
331 342 347 350 353 357 360 2 3 358 358 10 83 24 356 355 49 44 80 66 183 68 22 32 38 4 12 0 34 60 67 187 316 280 37 338 116 143 192 256 214 176 176 141 121 230 69
319 333 340 345 351 356 359 1 3 0 2 349 73 247 355 57 92 37 227 110 107 95 86 53 35 34 11 16 350 14 65 28 5 39 109 231 26 44 353 0 356 215 197 143 114 97 202
314 325 332 337 348 355 358 360 2 1 2 14 63 10 337 44 31 127 145 195 151 177 147 143 147 95 23 33 15 262 345 352 13 69 66 64 100 160 189 204 151 227 220 182 144 139 189
300 310 321 326 342 349 355 359 0 2 2 11 29 195 169 329 356 25 31 176 164 180 232 196 138 152 146 110 11 83 15 343 7 359 31 69 343 39 267 252 267 253 230 194 194 198 195
292 302 309 313 331 344 352 357 1 5 5 63 57 45 8 87 351 48 355 257 212 294 155 269 192 197 180 169 170 176 152 168 181 16 48 3 223 88 294 18 204 264 248 232 232 242 259
282 285 294 306 316 334 346 355 2 8 17 65 52 83 105 313 49 54 270 261 263 38 327 333 234 48 294 260 185 272 271 163 168 156 154 95 86 28 292 344 306 281 229 207 193 205 207
275 277 273 291 302 316 337 349 359 8 20 38 39 62 75 277 147 203 202 55 315 336 324 346 19 345 345 357 66 69 34 331 287 340 179 148 141 141 248 5 343 251 308 225 211 256 245
268 270 269 271 280 292 310 332 344 359 8 24 30 73 101 283 239 269 186 176 105 31 21 244 90 168 324 28 1 6 350 40 58 11 336 345 84 94 156 196 286 150 164 147 148 299 331
266 266 266 267 269 276 285 303 314 336 356 1 24 39 102 113 250 236 164 173 184 217 322 203 131 120 81 79 57 252 243 237 196 107 62 82 27 90 47 203 256 352 356 252 119 276 287
264 265 268 260 261 262 268 277 291 301 312 343 318 5 82 158 265 177 203 182 139 127 181 298 213 90 52 123 167 214 260 223 222 185 163 137 146 187 209 281 289 264 270 233 306 274 221
271 267 265 265 257 256 255 254 265 273 279 264 250 288 328 186 275 230 227 151 101 137 158 197 53 336 61 162 169 228 207 242 259 170 186 172 155 193 141 191 267 197 230 200 224 193 202
288 285 268 268 262 254 251 248 248 253 253 244 267 244 235 214 246 253 248 245 230 204 156 178 199 162 190 102 198 135 236 172 189 270 47 234 192 186 190 215 246 227 225 263 213 200 242